Tracking 35275 objects as of 9-Sep-2026
HD Live streaming from Space Station
objects crossing your sky now

SJ-2B


SJ-2B is no longer on orbit


NORAD ID: 12845
Int'l Code: 1981-093D
Launch date: September 19, 1981
Source: People's Republic of China (PRC)
Launch site: Jiuquan Satellite Launch Center, China (JSC)
Decay date: 1982-08-17
Your satellite tracking list
Your tracking list is empty




NASA's NSSDC Master Catalog

Two Line Element Set (TLE):
1 12845U 81093  D 82229.42116724  .16050012 +47554-4 +41316-3 0  9993
2 12845 059.3860 149.4143 0034105 125.3102 235.1165 16.41534017048777
Source of the keplerian elements: AFSPC